Tracking 27122 objects as of 24-Mar-2023
HD Live streaming from Space Station
objects crossing your sky now

STARLINK-1694

Track STARLINK-1694 now!
10-day predictions
STARLINK-1694 is classified as:


NORAD ID: 46544
Int'l Code: 2020-070N
Perigee: 554.1 km
Apogee: 554.7 km
Inclination: 53.1 °
Period: 95.6 minutes
Semi major axis: 6925 km
RCS: Unknown
Launch date: October 6, 2020
Source: United States (US)
Launch site: AIR FORCE EASTERN TEST RANGE (AFETR)
Your satellite tracking list
Your tracking list is empty




NASA's NSSDC Master Catalog

Two Line Element Set (TLE):
1 46544U 20070N   23082.91176775  .00046852  00000-0  31448-2 0  9997
2 46544  53.0536 337.9098 0000412 122.4651 237.6378 15.06383794136668
Source of the keplerian elements: AFSPC